Central Park, NY

7:59 AM EDT on June 22, 2018 (GMT -0400)
Central Park

Weather History for KNYC - February, 2017

Change the Weather History Date:

Sunday, February 12, 2017

  Actual Average Record
Temperature  
Mean Temperature 35 °F 35 °F  
Max Temperature 40 °F 41 °F 62 °F (1999)
Min Temperature 30 °F 28 °F -3 °F (1914)
Degree Days  
Heating Degree Days 30 30  
Month to date heating degree days 342 373  
Since 1 July heating degree days 2677 3062  
Cooling Degree Days 0 0  
Month to date cooling degree days 0 0  
Year to date cooling degree days 0 0  
Moisture  
Dew Point 30 °F    
Average Humidity 82    
Maximum Humidity 100    
Minimum Humidity 64    
Precipitation  
Precipitation 0.46 in 0.11 in 1.66 in (2006)
Month to date precipitation 1.92 1.29  
Year to date precipitation 6.75 4.94  
Snow  
Snow T in 0.30 in 24.10 in (2006)
Month to date snowfall 9.4 3.9  
Since 1 July snowfall 20.5 16.0  
Snow Depth 2.00 in    
Sea Level Pressure  
Sea Level Pressure 29.87 in    
Wind  
Wind Speed 7 mph (ENE)    
Max Wind Speed 17 mph    
Max Gust Speed 23 mph    
Visibility 5 miles    
Events Rain , Snow    
T = Trace of Precipitation, MM = Missing Value Source: NWS Daily Summary

Daily Weather History Graph

Daily Weather History Graph

Search for Another Location

Airport or City:

Astronomy

Feb. 12, 2017 Rise Set
Actual Time 6:53 AM EST 5:27 PM EST
Civil Twilight 6:25 AM EST 5:55 PM EST
Nautical Twilight 5:53 AM EST 6:27 PM EST
Astronomical Twilight 5:21 AM EST 6:59 PM EST
Moon 7:25 PM EST (2/12) 7:47 AM EST (2/12)
Length of Visible Light 11h 30m
Length of Day
10h 33m
Full, 97% of the Moon is Illuminated
Feb 12
Full
Feb 18
Last Quarter
Feb 26
New
Mar 5
First Quarter
Mar 12
Full

Hourly Weather History & Observations

Time (EST) Temp. Windchill Dew Point Humidity Pressure Visibility Wind Dir Wind Speed Gust Speed Precip Events Conditions
12:51 AM 39.0 °F 34.8 °F 28.9 °F 67% 30.10 in 9.0 mi ESE 5.8 mph - N/A   Clear
1:51 AM 37.9 °F 34.4 °F 28.0 °F 68% 30.12 in 9.0 mi ENE 4.6 mph - N/A   Clear
2:51 AM 37.0 °F 28.9 °F 28.0 °F 70% 30.09 in 9.0 mi East 12.7 mph - N/A   Mostly Cloudy
3:51 AM 34.0 °F 25.0 °F 25.0 °F 70% 30.10 in 10.0 mi ENE 12.7 mph 19.6 mph N/A   Overcast
4:51 AM 33.1 °F 26.1 °F 27.0 °F 78% 30.10 in 7.0 mi ENE 8.1 mph - 0.01 in   Overcast
5:51 AM 33.1 °F 25.5 °F 27.0 °F 78% 30.10 in 8.0 mi ESE 9.2 mph - 0.01 in   Overcast
6:13 AM 32.0 °F 26.4 °F 28.0 °F 85% 30.12 in 6.0 mi Variable 5.8 mph - 0.01 in Rain Light Freezing Rain
6:51 AM 32.0 °F 23.6 °F 27.0 °F 82% 30.07 in 8.0 mi East 10.4 mph - 0.02 in Rain Light Freezing Rain
7:02 AM 32.0 °F 24.2 °F 28.0 °F 85% 30.08 in 8.0 mi ENE 9.2 mph - 0.00 in   Overcast
7:17 AM 30.9 °F 23.5 °F 28.0 °F 89% 30.09 in 8.0 mi East 8.1 mph - 0.00 in   Overcast
7:51 AM 30.9 °F 24.3 °F 28.0 °F 89% 30.07 in 5.0 mi East 6.9 mph - 0.01 in Rain Light Freezing Rain
8:20 AM 30.9 °F 20.7 °F 27.0 °F 85% 30.09 in 7.0 mi East 13.8 mph - 0.00 in   Overcast
8:51 AM 30.9 °F 25.2 °F 27.0 °F 85% 30.05 in 7.0 mi East 5.8 mph 19.6 mph 0.00 in   Overcast
9:34 AM 30.0 °F 21.7 °F 28.0 °F 92% 30.05 in 2.5 mi ENE 9.2 mph 18.4 mph 0.00 in Rain Light Freezing Rain
9:47 AM 30.2 °F 21.3 °F 28.4 °F 93% 30.04 in 1.5 mi ENE 10.4 mph 17.3 mph N/A Rain Light Freezing Rain
9:51 AM 30.0 °F 20.0 °F 28.0 °F 92% 30.02 in 1.5 mi East 12.7 mph - 0.01 in Rain Light Freezing Rain
10:08 AM 30.0 °F 21.7 °F 28.9 °F 96% 30.05 in 2.0 mi ENE 9.2 mph 17.3 mph 0.02 in Rain Light Freezing Rain
10:31 AM 30.0 °F 20.0 °F 28.0 °F 92% 30.03 in 1.8 mi ENE 12.7 mph - 0.07 in Snow Light Snow
10:44 AM 30.0 °F 18.7 °F 28.0 °F 92% 30.00 in 3.0 mi ENE 16.1 mph 23.0 mph 0.10 in   Overcast
10:51 AM 30.0 °F 19.5 °F 28.0 °F 92% 29.97 in 3.0 mi ENE 13.8 mph 23.0 mph 0.11 in   Overcast
11:01 AM 30.0 °F 21.1 °F 28.0 °F 92% 29.99 in 3.0 mi ENE 10.4 mph 20.7 mph 0.01 in Rain Light Freezing Rain
11:51 AM 30.0 °F 21.7 °F 28.9 °F 96% 29.91 in 2.5 mi East 9.2 mph 18.4 mph 0.08 in Rain Light Freezing Rain
12:51 PM 32.0 °F 27.5 °F 30.9 °F 96% 29.88 in 1.5 mi Variable 4.6 mph - 0.10 in Rain Light Freezing Rain
1:09 PM 30.9 °F 23.5 °F 30.0 °F 96% 29.87 in 4.0 mi ENE 8.1 mph - 0.01 in Rain Light Freezing Rain
1:46 PM 32.0 °F 26.4 °F 30.2 °F 93% 29.82 in 5.0 mi Variable 5.8 mph - 0.03 in   Overcast
1:51 PM 32.0 °F 24.8 °F 30.9 °F 96% 29.79 in 4.0 mi East 8.1 mph - 0.03 in Rain Light Freezing Rain
2:00 PM 32.0 °F 25.6 °F 30.9 °F 96% 29.81 in 6.0 mi ENE 6.9 mph - 0.00 in   Overcast
2:51 PM 32.0 °F 24.2 °F 32.0 °F 100% 29.75 in 5.0 mi ENE 9.2 mph - 0.01 in   Overcast
3:34 PM 33.1 °F 26.9 °F 32.0 °F 96% 29.75 in 2.0 mi ENE 6.9 mph - 0.00 in Rain Rain
3:51 PM 33.1 °F 26.9 °F 32.0 °F 96% 29.72 in 2.0 mi ENE 6.9 mph - 0.01 in   Overcast
4:13 PM 33.1 °F 26.1 °F 33.1 °F 100% 29.72 in 3.0 mi ENE 8.1 mph - 0.01 in   Overcast
4:20 PM 34.0 °F 26.6 °F 33.1 °F 96% 29.71 in 2.0 mi ENE 9.2 mph - 0.02 in   Overcast
4:27 PM 34.0 °F 27.2 °F 33.1 °F 96% 29.71 in 1.8 mi ENE 8.1 mph - 0.02 in   Overcast
4:51 PM 34.0 °F 28.0 °F 32.0 °F 92% 29.68 in 2.5 mi Variable 6.9 mph - 0.02 in   Overcast
5:04 PM 34.0 °F 28.8 °F 34.0 °F 100% 29.70 in 3.0 mi Variable 5.8 mph - N/A   Overcast
5:12 PM 34.0 °F 29.8 °F 34.0 °F 100% 29.71 in 3.0 mi Variable 4.6 mph - N/A   Overcast
5:35 PM 34.0 °F 28.8 °F 34.0 °F 100% 29.70 in 2.5 mi ENE 5.8 mph - 0.01 in Rain Light Rain
5:51 PM 34.0 °F 27.2 °F 33.1 °F 96% 29.69 in 2.0 mi North 8.1 mph - 0.02 in   Overcast
6:03 PM 34.0 °F 29.8 °F 33.1 °F 96% 29.71 in 3.0 mi Variable 4.6 mph - 0.00 in   Overcast
6:16 PM 34.0 °F 31.0 °F 33.1 °F 96% 29.71 in 2.5 mi Variable 3.5 mph - 0.01 in   Overcast
6:33 PM 34.0 °F 28.8 °F 33.1 °F 96% 29.71 in 2.5 mi Variable 5.8 mph - 0.01 in   Overcast
6:48 PM 33.8 °F 28.6 °F 33.8 °F 100% 29.72 in 4.0 mi Variable 5.8 mph - 0.02 in   Overcast
6:51 PM 34.0 °F 28.8 °F 33.1 °F 96% 29.70 in 4.0 mi Variable 5.8 mph - 0.02 in   Overcast
7:33 PM 34.0 °F 31.0 °F 33.1 °F 96% 29.71 in 6.0 mi Variable 3.5 mph - N/A   Overcast
7:51 PM 34.0 °F - 33.1 °F 96% 29.70 in 7.0 mi Calm Calm - N/A   Overcast
8:51 PM 34.0 °F 31.0 °F 33.1 °F 96% 29.67 in 8.0 mi NW 3.5 mph - N/A   Mostly Cloudy
9:33 PM 34.0 °F 29.8 °F 33.1 °F 96% 29.67 in 10.0 mi WNW 4.6 mph - N/A   Scattered Clouds
9:51 PM 34.0 °F 28.8 °F 33.1 °F 96% 29.65 in 10.0 mi WNW 5.8 mph - N/A   Clear
10:51 PM 35.1 °F 32.2 °F 32.0 °F 89% 29.62 in 10.0 mi Variable 3.5 mph - N/A   Partly Cloudy
11:51 PM 36.0 °F - 33.1 °F 89% 29.59 in 10.0 mi Calm Calm - N/A   Partly Cloudy